Regional Weather Roundup
Issued by NWS

Home | Current Version | Previous Version | Text Only | Print | Product List | Glossary Off
Versions: 1 2 3 4 5 6 7 8 9 10 11 12 13 14 15 16 17 18 19 20 21 22 23 24 25 26 27 28 29 30 31 32 33 34 35 36 37 38 39 40 41 42 43 44 45 46 47 48 49

000
ASUS45 KBOU 200807
RWRCO

WEATHER ROUNDUP FOR COLORADO
NATIONAL WEATHER SERVICE DENVER/BOULDER CO
200 AM MDT SAT SEP 20 2014

NOTE: "FAIR" INDICATES FEW OR NO CLOUDS BELOW 12000 FEET WITH NO
SIGNIFICANT WEATHER AND/OR OBSTRUCTIONS TO VISIBILITY.

COZ001>005-013-030-031-200900-
...NORTHWEST COLORADO...

CITY           SKY/WX    TMP DP  RH WIND       PRES   REMARKS
CRAIG          CLEAR     44  39  82 CALM      30.24R
HAYDEN         CLEAR     54  39  58 E6        30.25R
MEEKER         CLEAR     54  44  69 CALM      30.24
MOUNT WERNER   NOT AVBL
STEAMBOAT SPGS CLEAR     49  43  78 CALM      30.26R
WALDEN         CLEAR     41  36  81 E6        30.33R
$$

COZ006>008-011-200900-
...WEST CENTRAL VALLEYS...

CITY           SKY/WX    TMP DP  RH WIND       PRES   REMARKS
GRAND JUNCTION CLEAR     67  44  43 SE3       30.07R
MONTROSE       CLEAR     61  44  53 SE9       30.17R
EAGLE          CLEAR     54  43  66 CALM      30.26R
RIFLE          CLEAR     57  44  62 E3        30.16R
DELTA          CLEAR     64  43  47 CALM      30.12R
NUCLA          CLEAR     59  43  55 SE6       30.19R
$$

COZ017>023-064>068-200900-
...SOUTHWEST COLORADO...

CITY           SKY/WX    TMP DP  RH WIND       PRES   REMARKS
DURANGO        CLEAR     55  43  63 NE5       30.17R
CORTEZ         CLEAR     54  47  77 NE6       30.14R
PAGOSA SPRINGS CLEAR     53  43  69 CALM      30.26R
TELLURIDE      NOT AVBL
WOLF CREEK PAS CLEAR     46  32  57 NE14      30.57R
$$

COZ009-010-012-014-032>034-037-058>063-200900-
...CENTRAL COLORADO...

CITY           SKY/WX    TMP DP  RH WIND       PRES   REMARKS
ASPEN          CLEAR     51  40  65 S6        30.31R
BUENA VISTA    CLEAR     54  37  51 NW9       30.32R
COPPER MTN     CLEAR     52  36  54 W10       30.59S
BERTHOUD PASS  FAIR      41  37  87 NW14      30.62S
COTTONWOOD PAS CLEAR     59  34  38 W8        30.44R
GUNNISON       CLEAR     45  36  70 CALM      30.33R
KREMMLING      CLEAR     46  37  71 CALM      30.31R
LEADVILLE      CLEAR     41  34  76 NE6       30.44R
SALIDA         CLEAR     53  39  60 W9        30.36R
SUNLIGHT       CLEAR     52  41  66 NE3       30.53R
WILKERSON PASS NOT AVBL
$$

COZ069>075-200900-
...SAN LUIS VALLEY/SANGRE DE CRISTO MOUNTAINS...

CITY           SKY/WX    TMP DP  RH WIND       PRES   REMARKS
ALAMOSA        CLEAR     49  36  61 E5        30.25R
LA VETA PASS   CLEAR     54  36  50 SW5       30.44S
SAGUACHE       NOT AVBL
$$

COZ035-036-038>040-200900-
...NORTHERN COLORADO FRONT RANGE...

CITY           SKY/WX    TMP DP  RH WIND       PRES   REMARKS
DENVER INTL AP PTCLDY    63  46  54 SW8       30.11R
DMNS CITY PARK   N/A     63  51  63 S3        30.12R
AURORA         PTCLDY    61  46  56 SW8       30.14R
FRONT RANGE AP NOT AVBL
ERIE MUNI ARPT CLEAR     62  48  62 S3        30.09R
BOULDER MUN AP CLEAR     68  45  42 SW6       30.10S
CENTENNIAL     PTCLDY    59  46  62 SW6       30.15R
BROOMFIELD     PTCLDY    63  46  55 W9        30.13R
FORT COLLINS   PTCLDY    63  48  59 NE6       30.10R
LONGMONT       CLEAR     59  49  69 W6        30.11R
$$

COZ041-046-047-076>085-087-088-200900-
...PIKES PEAK/PALMER DIVIDE AND SOUTHERN FOOTHILLS...

CITY           SKY/WX    TMP DP  RH WIND       PRES   REMARKS
COLO. SPRINGS  CLEAR     64  43  46 NW10      30.17R
A. F. ACADEMY  CLEAR     58  42  55 N8        30.20R
ELLICOTT       NOT AVBL
FALCON         CLEAR     59  43  55 N10       30.20S
FORT CARSON    CLEAR     66  44  45 N10       30.13R
LIMON          CLEAR     57  49  74 SW6       30.09R
MONUMENT HILL  CLEAR     50  41  71 SW5       30.21S
TRINIDAD       CLEAR     65  56  72 W20       30.09R
$$

COZ042>045-048>051-090-091-200900-
...NORTHEAST COLORADO...

CITY           SKY/WX    TMP DP  RH WIND       PRES   REMARKS
GREELEY ARPT   PTCLDY    59  48  67 CALM      30.08R
AKRON          PTCLDY    63  52  67 SW7       30.02R
BURLINGTON     PTCLDY    63  58  83 SW9       30.00F
WRAY           CLOUDY    69  49  49 N7        29.94S
STERLING       PTCLDY    63  59  88 NW3       30.00R
HOLYOKE        CLOUDY    64  52  63 NW6       29.96R
FORT MORGAN    PTCLDY    60  53  76 W10       30.05R
$$

COZ086-089-092>099-200900-
...SOUTHEAST COLORADO...

CITY           SKY/WX    TMP DP  RH WIND       PRES   REMARKS
PUEBLO         CLEAR     59  38  45 CALM      30.04R
LA JUNTA       CLEAR     61  54  77 SW3       29.99R
LAMAR          CLEAR     62  58  86 E5        29.97R
SPRINGFIELD      N/A     64  62  93 S16G24    30.02S
$$


USA.gov is the U.S. government's official web portal to all federal, state and local government web resources and services.